Location: P�rn�nmaa
(61.1833°N, 23.0000°E)
Time: 18:32:55
(UTC+00:00)

Meteor 1-26 Rocket - Pass Details

Date: 08 December 2019
Orbit: 814 x 921 km, 81.3° (Epoch: 17 January)

Event Time Altitude Azimuth Distance (km) Brightness Sun altitude
Rises 14:55:49 0° 184° (S) 3,496 7.9 -10.3°
Reaches altitude 10° 14:58:18 10° 181° (S) 2,545 7.1 -10.6°
Maximum altitude 15:04:01 66° 101° (E) 946 4.3 -11.2°
Drops below altitude 10° 15:09:37 10° 20° (NNE) 2,489 6.2 -11.8°
Enters shadow 15:10:46 - 19° (NNE) 2,926 6.6 -11.9°
